TimeEST,TemperatureF,Dew PointF,Humidity,Sea Level PressureIn,VisibilityMPH,Wind Direction,Wind SpeedMPH,Gust SpeedMPH,PrecipitationIn,Events,Conditions,WindDirDegrees,DateUTC
12:53 AM,30.9,26.1,82,29.87,10.0,SSW,11.5,-,N/A,,Overcast,200,2013-02-23 05:53:00
1:51 AM,30.2,26.6,86,29.83,9.0,SSW,11.5,-,N/A,,Overcast,200,2013-02-23 06:51:00
1:53 AM,30.0,26.1,85,29.86,9.0,SSW,11.5,-,N/A,,Overcast,200,2013-02-23 06:53:00
3:41 AM,30.2,24.8,80,29.83,7.0,SSW,10.4,-,0.00,Snow,Light Snow,200,2013-02-23 08:41:00
3:53 AM,30.0,25.0,82,29.86,6.0,SSW,12.7,-,0.00,Snow,Light Snow,200,2013-02-23 08:53:00
4:53 AM,30.0,26.1,85,29.86,5.0,SSW,11.5,-,0.00,Snow,Light Snow,200,2013-02-23 09:53:00
5:06 AM,28.4,26.6,93,29.83,4.0,SSW,11.5,-,0.00,Snow,Light Snow,200,2013-02-23 10:06:00
5:53 AM,28.9,26.1,89,29.86,4.0,SSW,11.5,-,0.01,Snow,Light Snow,200,2013-02-23 10:53:00
6:20 AM,28.4,24.8,86,29.84,5.0,SSW,13.8,-,0.01,Snow,Light Freezing Drizzle,200,2013-02-23 11:20:00
6:31 AM,28.4,24.8,86,29.84,5.0,SSW,12.7,19.6,0.01,Snow,Light Snow,210,2013-02-23 11:31:00
6:53 AM,28.9,25.0,85,29.88,7.0,SSW,11.5,-,0.01,,Overcast,210,2013-02-23 11:53:00
7:04 AM,28.4,24.8,86,29.85,7.0,SSW,9.2,-,N/A,,Overcast,210,2013-02-23 12:04:00
7:24 AM,28.4,24.8,86,29.85,6.0,SSW,10.4,-,0.00,Snow,Light Snow,210,2013-02-23 12:24:00
7:53 AM,28.9,25.0,85,29.89,4.0,SSW,10.4,-,0.00,Snow,Light Snow,200,2013-02-23 12:53:00
8:12 AM,28.4,24.8,86,29.86,2.5,SSW,9.2,-,0.00,Snow,Light Snow,200,2013-02-23 13:12:00
8:21 AM,28.4,24.8,86,29.86,1.5,SSW,10.4,-,0.00,Snow,Light Snow,210,2013-02-23 13:21:00
8:53 AM,28.0,25.0,88,29.90,0.5,SSW,8.1,-,0.01,Fog-Snow,Snow,210,2013-02-23 13:53:00
9:03 AM,28.4,26.6,93,29.86,0.8,SSW,9.2,-,0.01,Snow,Light Snow,200,2013-02-23 14:03:00
9:15 AM,28.4,26.6,93,29.86,1.0,SW,8.1,-,0.01,Snow,Light Snow,220,2013-02-23 14:15:00
9:53 AM,28.9,26.1,89,29.88,1.2,SW,12.7,-,0.01,Snow,Light Snow,230,2013-02-23 14:53:00
10:07 AM,30.2,26.6,86,29.85,2.5,SW,12.7,-,0.01,Snow,Light Snow,230,2013-02-23 15:07:00
10:24 AM,30.2,24.8,80,29.85,3.0,SW,13.8,-,0.01,Snow,Light Snow,230,2013-02-23 15:24:00
10:33 AM,30.2,24.8,80,29.86,2.0,SW,13.8,-,0.01,Snow,Light Snow,230,2013-02-23 15:33:00
10:41 AM,30.2,26.6,86,29.86,1.8,WSW,13.8,-,0.01,Snow,Light Snow,240,2013-02-23 15:41:00
10:53 AM,30.0,25.0,82,29.89,2.0,WSW,13.8,-,0.01,Snow,Light Snow,240,2013-02-23 15:53:00
11:08 AM,30.2,24.8,80,29.86,1.8,WSW,17.3,-,0.00,Snow,Light Snow,240,2013-02-23 16:08:00
11:13 AM,28.4,24.8,86,29.86,1.8,WSW,17.3,23.0,0.00,Snow,Light Snow,240,2013-02-23 16:13:00
11:34 AM,28.4,24.8,86,29.87,3.0,WSW,15.0,-,0.00,Snow,Light Snow,240,2013-02-23 16:34:00
11:53 AM,30.0,19.9,66,29.89,9.0,WSW,19.6,28.8,0.00,,Overcast,240,2013-02-23 16:53:00
12:53 PM,28.9,21.9,75,29.90,4.0,WSW,18.4,-,0.00,Snow,Light Snow,240,2013-02-23 17:53:00
1:09 PM,28.4,23.0,80,29.87,2.5,WSW,16.1,-,0.00,Snow,Light Snow,250,2013-02-23 18:09:00
1:23 PM,28.4,23.0,80,29.87,4.0,WSW,17.3,-,0.00,Snow,Light Snow,240,2013-02-23 18:23:00
1:53 PM,28.9,23.0,78,29.89,3.0,West,15.0,-,0.00,Snow,Light Snow,260,2013-02-23 18:53:00
2:19 PM,28.4,21.2,74,29.86,4.0,WSW,13.8,-,0.00,Snow,Light Snow,250,2013-02-23 19:19:00
2:53 PM,28.9,21.9,75,29.88,6.0,WSW,16.1,-,0.00,Snow,Light Snow,250,2013-02-23 19:53:00
3:53 PM,28.0,21.0,75,29.89,5.0,SW,16.1,-,0.00,Snow,Light Snow,230,2013-02-23 20:53:00
4:14 PM,28.4,21.2,74,29.86,2.0,WSW,15.0,-,0.00,Snow,Light Snow,240,2013-02-23 21:14:00
4:22 PM,28.4,21.2,74,29.87,1.5,SW,15.0,-,0.00,Snow,Light Snow,230,2013-02-23 21:22:00
4:47 PM,28.4,21.2,74,29.87,1.0,WSW,11.5,-,0.00,Snow,Light Snow,240,2013-02-23 21:47:00
4:53 PM,28.0,21.9,78,29.90,1.0,WSW,15.0,-,0.00,Snow,Light Snow,240,2013-02-23 21:53:00
5:18 PM,26.6,24.8,93,29.87,0.8,West,9.2,-,0.00,Snow,Light Snow,260,2013-02-23 22:18:00
5:37 PM,26.6,23.0,86,29.87,1.0,WSW,9.2,-,0.00,Snow,Light Snow,240,2013-02-23 22:37:00
5:53 PM,27.0,23.0,85,29.91,1.8,SW,10.4,-,0.00,Snow,Light Snow,230,2013-02-23 22:53:00
6:45 PM,26.6,23.0,86,29.89,2.5,SSW,8.1,-,0.00,Snow,Light Snow,210,2013-02-23 23:45:00
6:53 PM,27.0,23.0,85,29.92,2.0,SSW,8.1,-,0.00,Snow,Light Snow,210,2013-02-23 23:53:00
7:53 PM,26.1,23.0,88,29.93,2.5,SSW,6.9,-,0.01,Snow,Light Snow,210,2013-02-24 00:53:00
8:08 PM,26.6,21.2,80,29.90,4.0,SSW,9.2,-,0.00,Snow,Light Snow,210,2013-02-24 01:08:00
8:33 PM,26.6,21.2,80,29.90,5.0,SSW,9.2,-,0.00,Snow,Light Snow,210,2013-02-24 01:33:00
8:53 PM,26.1,21.9,84,29.94,3.0,SSW,8.1,-,0.00,Snow,Light Snow,210,2013-02-24 01:53:00
9:53 PM,26.1,21.9,84,29.93,6.0,SSW,10.4,-,0.00,Snow,Light Snow,210,2013-02-24 02:53:00
10:53 PM,24.8,21.2,86,29.89,7.0,SSW,12.7,-,N/A,Snow,Light Snow,210,2013-02-24 03:53:00
11:13 PM,24.8,21.2,86,29.88,2.0,SSW,9.2,-,0.00,Snow,Light Snow,210,2013-02-24 04:13:00
11:19 PM,24.8,21.2,86,29.88,1.8,SSW,10.4,-,0.00,Snow,Light Snow,210,2013-02-24 04:19:00
11:38 PM,24.8,21.2,86,29.88,3.0,SSW,9.2,-,0.00,Snow,Light Snow,200,2013-02-24 04:38:00
11:53 PM,25.0,21.9,88,29.91,3.0,SW,9.2,-,0.00,Snow,Light Snow,220,2013-02-24 04:53:00